User: anonymous   Login
Location: Chassagnes
(44.4047°N, 4.1657°E)
Time: 13:45:09
(UTC+00:00)
Language:

IRS-1C Rocket - Orbit

View from above orbital plane
View from above orbital plane
View from above satellite
View from above satellite

Ground track
Ground track

The orbit data is extracted from the following two-line orbital elements,

1 23753U 95072C   21016.80996666 -.00000055  00000-0 -36506-5 0  9990
2 23753  98.9639  42.0407 0004584  73.7757 286.3926 14.26596693303957
Epoch (UTC): 16 January 2021 19:26:21
Eccentricity: 0.0004584
inclination: 98.9639°
perigee height: 800 km
apogee height: 806 km
right ascension of ascending node: 42.0407°
argument of perigee: 73.7757°
revolutions per day: 14.26596693
mean anomaly at epoch: 286.3926°
orbit number at epoch: 30395

The dashed part of the orbit path shows where the satellite is in the earth's shadow,  

DLR